[[{"header":{"parameterUnit":"m.s-1","parameterCategory":1,"la1":30.2991,"la2":30.254,"lo1":-89.0895,"lo2":-89.0444,"dy":0.0017,"dx":0.0017,"nx":28,"ny":28,"refTime":"2024-02-03T09:00:00:Z","depth":0,"parameterNumber":2,"parameterNumberName":"U-component_of_WINDS"},"data":[0,0,0,0,0,0,0,0,0,0,0,0,0,0,0,0,0,0,0,0,0,0,0,0,0,0,0,0,0,0,0,0,0,0,0,0,0,0,0,0,0,0,0,0,0,0,0,0,0,0,0,0,0,0,0,0,0,0,-6.0788,-6.0804,0,-6.2324,-6.2342,-6.2359,-6.2991,-6.2987,-6.2984,-6.2981,-6.4569,-6.4613,-6.4658,0,0,0,0,0,0,0,0,0,0,0,0,0,-5.8418,-5.8458,-6.0786,-6.0805,-6.0825,-6.2321,-6.2343,-6.2364,-6.2991,-6.2987,-6.2983,-6.2979,-6.4554,-6.4607,-6.4662,0,0,0,0,0,0,0,0,0,0,0,0,0,-5.9649,-5.8471,-6.0783,-6.1318,-6.1381,-6.2317,-6.2343,-6.2369,-6.2992,-6.2987,-6.2982,-6.2977,-6.4536,-6.4602,-6.4669,-6.5191,0,0,-6.4877,-6.4907,0,0,0,0,0,0,0,0,-5.9578,-5.9736,-6.122,-6.1283,-6.1355,-6.246,-6.2091,-6.3316,-6.2994,-6.2381,-6.2981,-6.2975,-6.3872,-6.3994,-6.4295,-6.5265,-6.5334,-6.4883,-6.4925,-6.4954,-6.4973,0,0,0,0,0,0,0,-5.9492,-5.9673,-6.1396,-6.1241,-6.1324,-6.1489,-6.1658,-6.2325,-6.3137,-6.2434,-6.2483,-6.2656,-6.3908,-6.4227,-6.4336,-6.5357,-6.4882,-6.4942,-6.4984,-6.5011,-6.6849,-6.6856,0,0,0,0,0,0,-5.9316,-5.9598,-6.1347,-6.1442,-6.0436,-6.1535,-6.1725,-6.2111,-6.3131,-6.3281,-6.2659,-6.268,-6.4113,-6.4256,-6.4394,-6.5082,-6.4953,-6.5017,-6.5056,-6.6841,-6.6851,-6.6859,0,0,0,0,0,0,-5.9263,-5.9466,-6.1285,-6.0534,-6.0778,-6.1582,-6.201,-6.2144,-6.2464,-6.3301,-6.345,-6.2834,-6.4115,-6.4299,-6.4991,-6.5145,-6.5048,-6.511,-6.6832,-6.6844,-6.6855,-6.6451,0,0,0,0,0,0,-5.9192,-5.9443,-5.9643,-6.0533,-6.0815,-6.1846,-6.202,-6.2178,-6.2578,-6.262,-6.3505,-6.3647,-6.4125,-6.4885,-6.5058,-6.5237,-6.5163,-6.6821,-6.6837,-6.6851,-6.6454,-6.6448,-6.6442,0,0,0,0,0,-5.9105,-5.9468,-5.965,-5.9857,-6.1082,-6.1854,-6.2016,-6.2555,-6.2587,-6.28,-6.334,-6.3619,-6.5099,-6.4951,-6.5151,-6.5352,-6.6814,-6.6833,-6.685,-6.6457,-6.6449,-6.6442,0,0,0,0,0,0,-5.8578,-5.9594,-5.9807,-6.0468,-6.1069,-6.1958,-6.2242,-6.2527,-6.3135,-6.315,-6.3798,-6.3993,-6.4632,-6.5064,-6.4879,-6.5919,-6.598,-6.6038,-6.5612,-6.5612,-6.5606,-6.549,-6.522,0,0,0,0,0,-5.8537,-5.9073,-5.9936,-6.0436,-6.0727,-6.143,-6.1788,-6.2151,-6.2803,-6.3061,-6.3652,-6.4277,-6.4888,-6.5274,-6.5879,-6.652,-6.6728,-6.6759,-6.6752,-6.6743,-6.6787,-6.717,-6.7196,-6.6918,-6.6918,-6.6918,0,0,-5.8461,-5.9083,-5.9382,-6.0346,-6.0855,-6.1404,-6.1641,-6.2209,-6.2626,-6.315,-6.384,-6.4295,-6.5038,-6.5708,-6.6034,-6.6087,-6.6911,-6.6766,-6.6752,-6.6804,-6.7191,-6.7216,-6.7239,-6.693,-6.6928,-6.6926,0,0,-5.8603,-5.9123,-5.9602,-6.0109,-6.0876,-6.1344,-6.1457,-6.2309,-6.2631,-6.3333,-6.3741,-6.425,-6.528,-6.5796,-6.6192,-6.6541,-6.6824,-6.6721,-6.6689,-6.7055,-6.7077,-6.7099,-6.7231,-6.727,-6.6761,-6.676,-6.676,0,-5.8412,-5.9249,-5.9813,-6.0363,-6.0779,-6.1278,-6.1774,-6.2239,-6.3165,-6.3445,-6.3491,-6.4803,-6.5338,-6.6141,-6.6226,-6.6529,-6.6687,-6.6622,-6.7026,-6.7055,-6.7085,-6.7219,-6.7265,-6.6743,-6.6745,-6.6747,-6.6748,0,-5.8981,-5.9555,-5.9852,-6.0732,-6.1183,-6.17,-6.2352,-6.2742,-6.3069,-6.3534,-6.4249,-6.491,-6.5662,-6.588,-6.6204,-6.6735,-6.6745,-6.6899,-6.6975,-6.7085,-6.7221,-6.7276,-6.6718,-6.6724,-6.673,-6.6734,0,0,-5.8828,-6.0019,-6.0119,-6.0529,-6.1417,-6.1877,-6.2423,-6.3157,-6.3482,-6.4108,-6.4588,-6.5454,-6.5607,-6.6056,-6.6446,-6.6765,-6.701,-6.6887,-6.6914,-6.6891,-6.7646,-6.7524,-6.7573,-6.7203,-6.7215,-6.7224,-6.7586,0,-5.9093,-6.0086,-6.0615,-6.1388,-6.1932,-6.242,-6.2899,-6.3499,-6.3951,-6.4486,-6.4989,-6.5594,-6.5746,-6.6022,-6.636,-6.6906,-6.7171,-6.6888,-6.7664,-6.7685,-6.7464,-6.7645,-6.7518,-6.7826,-6.7642,-6.7651,-6.7658,0,-5.9532,-6.0149,-6.0974,-6.181,-6.2059,-6.2477,-6.3199,-6.37,-6.4397,-6.4705,-6.521,-6.5596,-6.6202,-6.6229,-6.7079,-6.6874,-6.7225,-6.7543,-6.7569,-6.7664,-6.7677,-6.7749,-6.7937,-6.7983,-6.7746,-6.7739,-6.7733,0,-5.9343,-6.0382,-6.1014,-6.1349,-6.2337,-6.2622,-6.3048,-6.374,-6.4151,-6.4784,-6.5059,-6.5753,-6.6134,-6.6668,-6.7235,-6.7202,-6.8032,-6.8105,-6.8312,-6.8297,-6.8465,-6.8446,-6.8714,-6.8681,-6.868,-6.8679,-6.8678,0,-5.9585,-6.0072,-6.0944,-6.133,-6.1896,-6.2506,-6.3051,-6.3517,-6.413,-6.4624,-6.509,-6.5545,-6.6265,-6.6814,-6.7262,-6.7902,-6.807,-6.8342,-6.8456,-6.8303,-6.8268,-6.8543,-6.8537,-6.8693,-6.869,-6.8687,-6.8685,0,-5.9468,-6.007,-6.0792,-6.167,-6.1904,-6.2281,-6.3039,-6.344,-6.3918,-6.4539,-6.4721,-6.5474,-6.6145,-6.6763,-6.7656,-6.7959,-6.8608,-6.8752,-6.837,-6.8434,-6.8607,-6.8583,-6.9064,-6.9162,-6.9052,-6.9052,-6.9053,0,-5.9583,-5.997,-6.0891,-6.1254,-6.1671,-6.2249,-6.2672,-6.3291,-6.3713,-6.4542,-6.4845,-6.555,-6.6146,-6.7197,-6.7829,-6.8518,-6.8685,-6.8806,-6.8792,-6.8628,-6.8696,-6.8666,-6.8713,-6.8796,-6.8794,-6.8793,-6.8792,0,-5.9725,-6.0007,-6.0594,-6.129,-6.178,-6.2359,-6.2953,-6.3226,-6.396,-6.4413,-6.5103,-6.5565,-6.6481,-6.7178,-6.794,-6.839,-6.8717,-6.8791,-6.8878,-6.8726,-6.8491,-6.8628,-6.8352,-6.8778,-6.8779,-6.878,-6.8781,-6.8781,-5.9736,-6.0105,-6.0813,-6.1456,-6.1969,-6.2515,-6.2938,-6.3471,-6.4056,-6.4846,-6.5179,-6.588,-6.6583,-6.764,-6.8088,-6.8653,-6.8722,-6.8842,-6.8875,-6.8896,-6.8869,-6.8397,-6.8794,-6.8795,-6.8796,-6.8797,-6.8798,0,-5.9906,-6.0387,-6.0972,-6.179,-6.2298,-6.2559,-6.3234,-6.3644,-6.4254,-6.4879,-6.5457,-6.6257,-6.6939,-6.7626,-6.8348,-6.8669,-6.8838,-6.8838,-6.8823,-6.8923,-6.8764,-6.862,-6.869,-6.869,-6.869,-6.869,-6.869,-6.869,-6.0054,-6.0697,-6.1063,-6.1971,-6.2455,-6.3142,-6.3506,-6.4018,-6.4521,-6.539,-6.5958,-6.6401,-6.7058,-6.7832,-6.8473,-6.866,-6.8906,-6.8865,-6.9092,-6.893,-6.8933,-6.8935,-6.8804,-6.8912,-6.8912,-6.9208,-6.921,-6.9212]},{"header":{"parameterUnit":"m.s-1","parameterCategory":1,"la1":30.2991,"la2":30.254,"lo1":-89.0895,"lo2":-89.0444,"dy":0.0017,"dx":0.0017,"nx":28,"ny":28,"refTime":"2024-02-03T09:00:00:Z","depth":0,"parameterNumber":3,"parameterNumberName":"V-component_of_WINDS"},"data":[0,0,0,0,0,0,0,0,0,0,0,0,0,0,0,0,0,0,0,0,0,0,0,0,0,0,0,0,0,0,0,0,0,0,0,0,0,0,0,0,0,0,0,0,0,0,0,0,0,0,0,0,0,0,0,0,0,0,6.2194,6.2194,0,6.2235,6.2236,6.2236,6.2207,6.2206,6.2205,6.2204,6.224,6.2242,6.2244,0,0,0,0,0,0,0,0,0,0,0,0,0,6.2086,6.2088,6.2194,6.2194,6.2195,6.2235,6.2236,6.2236,6.2208,6.2206,6.2205,6.2203,6.2239,6.2241,6.2244,0,0,0,0,0,0,0,0,0,0,0,0,0,6.213,6.2089,6.2194,6.2186,6.2185,6.2235,6.2236,6.2236,6.2208,6.2206,6.2204,6.2202,6.2238,6.2241,6.2244,6.2302,0,0,6.2254,6.2255,0,0,0,0,0,0,0,0,6.2128,6.2134,6.2186,6.2186,6.2186,6.2214,6.2211,6.2258,6.2208,6.2199,6.2204,6.2202,6.2232,6.2236,6.2247,6.2304,6.2305,6.2254,6.2256,6.2258,6.2259,0,0,0,0,0,0,0,6.2125,6.2132,6.221,6.2187,6.2187,6.2179,6.2183,6.222,6.2226,6.22,6.2198,6.2204,6.2232,6.2244,6.2248,6.2306,6.2254,6.2257,6.2259,6.226,6.2413,6.2415,0,0,0,0,0,0,6.2123,6.213,6.2209,6.2211,6.2152,6.2182,6.2187,6.2207,6.2225,6.2226,6.2205,6.2202,6.224,6.2244,6.2249,6.2318,6.2258,6.2261,6.2262,6.2411,6.2413,6.2415,0,0,0,0,0,0,6.2121,6.2131,6.2207,6.217,6.2179,6.2186,6.2209,6.2209,6.2221,6.2229,6.223,6.2217,6.2239,6.2245,6.229,6.2319,6.2262,6.2265,6.2408,6.2411,6.2414,6.2455,0,0,0,0,0,0,6.2118,6.213,6.2152,6.2171,6.2182,6.2248,6.2211,6.2211,6.2228,6.2224,6.2241,6.2242,6.2238,6.2285,6.2293,6.2322,6.2267,6.2405,6.2409,6.2413,6.2451,6.246,6.2467,0,0,0,0,0,6.2114,6.2161,6.2154,6.2163,6.221,6.225,6.2255,6.2252,6.223,6.2252,6.2258,6.2241,6.2316,6.229,6.2299,6.2329,6.2403,6.2408,6.2413,6.2448,6.2458,6.2466,0,0,0,0,0,0,6.2141,6.2163,6.2155,6.2209,6.2228,6.2245,6.2272,6.2262,6.2285,6.2281,6.2274,6.2278,6.2325,6.2332,6.2303,6.2387,6.2356,6.2362,6.2379,6.2389,6.2397,6.2392,6.227,0,0,0,0,0,6.2154,6.2187,6.2203,6.2249,6.2259,6.2265,6.2281,6.2278,6.2296,6.2303,6.2312,6.2329,6.2356,6.2373,6.2399,6.2454,6.2456,6.2479,6.2487,6.2493,6.2498,6.2527,6.2537,6.2431,6.2431,6.2431,0,0,6.2179,6.2195,6.2215,6.2255,6.2269,6.2301,6.2271,6.2305,6.2329,6.2307,6.2351,6.2359,6.2377,6.2428,6.245,6.2435,6.2529,6.2499,6.2504,6.2505,6.2533,6.2543,6.2552,6.2434,6.2434,6.2433,0,0,6.2241,6.2258,6.2298,6.2315,6.2338,6.2342,6.2353,6.2372,6.2377,6.2421,6.2407,6.2434,6.2481,6.2495,6.2508,6.2582,6.2566,6.2591,6.2628,6.2657,6.2666,6.2673,6.2697,6.2706,6.2596,6.2596,6.2596,0,6.2268,6.2318,6.2319,6.2356,6.2374,6.2361,6.2401,6.2416,6.2446,6.2458,6.2441,6.2502,6.2513,6.2567,6.2586,6.2598,6.2607,6.2586,6.2665,6.2672,6.2679,6.2702,6.2712,6.2599,6.2598,6.2598,6.2598,0,6.235,6.2385,6.2415,6.2448,6.2469,6.2508,6.2513,6.2535,6.2531,6.2537,6.2583,6.2597,6.2626,6.2639,6.2634,6.2693,6.2683,6.2666,6.2634,6.2692,6.2713,6.2722,6.2602,6.2601,6.2601,6.26,0,0,6.2424,6.2462,6.2472,6.2488,6.2516,6.2542,6.258,6.2612,6.2629,6.2652,6.2683,6.2726,6.2711,6.2727,6.2724,6.275,6.2806,6.273,6.2731,6.2742,6.287,6.288,6.2891,6.2799,6.28,6.2802,6.2868,0,6.2486,6.2555,6.256,6.2622,6.2654,6.2645,6.2679,6.2699,6.2707,6.2734,6.2742,6.2771,6.2751,6.2761,6.2787,6.2794,6.2831,6.279,6.2824,6.2825,6.2816,6.2902,6.2912,6.2974,6.2877,6.2878,6.2879,0,6.2566,6.2595,6.2661,6.2687,6.2701,6.2731,6.2761,6.2789,6.2812,6.2815,6.2835,6.283,6.2868,6.284,6.2891,6.2863,6.2878,6.2885,6.2887,6.2887,6.2853,6.2901,6.2993,6.3001,6.2893,6.2892,6.2891,0,6.2611,6.2667,6.2714,6.2728,6.276,6.2781,6.2795,6.2817,6.2836,6.2863,6.2875,6.2905,6.292,6.2942,6.2945,6.2924,6.2997,6.2968,6.2999,6.2999,6.3011,6.3009,6.3103,6.3027,6.3027,6.3026,6.3026,0,6.2677,6.2718,6.2735,6.2763,6.2809,6.2815,6.2858,6.287,6.2891,6.292,6.2915,6.2942,6.2946,6.2974,6.2977,6.3019,6.3026,6.3029,6.3028,6.3027,6.3027,6.3034,6.3028,6.3029,6.3028,6.3028,6.3027,0,6.2733,6.2747,6.2797,6.2826,6.2834,6.2866,6.2889,6.2916,6.2926,6.2963,6.2972,6.2986,6.302,6.3026,6.3064,6.3066,6.3116,6.3112,6.3108,6.3107,6.3136,6.3133,6.3236,6.3249,6.3166,6.3167,6.3168,0,6.2772,6.2804,6.2838,6.2859,6.2875,6.2909,6.293,6.2938,6.296,6.2991,6.3014,6.3048,6.3075,6.3128,6.314,6.317,6.3165,6.32,6.3169,6.3168,6.3163,6.316,6.3162,6.3204,6.3205,6.3206,6.3206,0,6.2841,6.2848,6.288,6.2916,6.2942,6.297,6.2996,6.3013,6.3025,6.3049,6.3085,6.3107,6.3149,6.3181,6.3212,6.3224,6.3216,6.3217,6.3225,6.3222,6.3218,6.3219,6.3121,6.3213,6.3212,6.3212,6.3211,6.3211,6.2888,6.2916,6.2946,6.2982,6.3004,6.303,6.3057,6.3073,6.3104,6.314,6.3143,6.3182,6.3206,6.3247,6.3262,6.3291,6.328,6.3292,6.3294,6.3297,6.3298,6.3217,6.3297,6.3297,6.3296,6.3296,6.3296,0,6.2954,6.2975,6.3009,6.3048,6.3077,6.3073,6.3103,6.3126,6.3162,6.3187,6.3215,6.3257,6.329,6.3306,6.3339,6.3359,6.3356,6.3367,6.3363,6.3366,6.3308,6.3296,6.3368,6.3368,6.3368,6.3368,6.3368,6.3368,6.2992,6.304,6.3051,6.311,6.3129,6.3169,6.3187,6.321,6.323,6.3278,6.3307,6.332,6.3341,6.3375,6.3405,6.3409,6.342,6.3431,6.3433,6.3377,6.337,6.3363,6.3352,6.3434,6.3435,6.3489,6.3489,6.349]}]]